Location: Newark
(42.7133°N, 87.7910°W)
Time: 08:16:51
(UTC+00:00)

Tiros 1 - Pass Details

Date: 25 September 2019
Orbit: 630 x 664 km, 48.4° (Epoch: 22 October)

Event Time Altitude Azimuth Distance (km) Brightness Sun altitude
Rises 16:02:38 0° 214° (SSW) 2,977 10.8 40.9°
Reaches altitude 10° 16:05:08 10° 205° (SSW) 2,064 10.2 41.1°
Maximum altitude 16:09:26 34° 140° (SE) 1,076 10.8 41.6°
Drops below altitude 10° 16:13:42 10° 76° (ENE) 2,056 10.0 42.0°
Sets 16:16:12 0° 68° (ENE) 2,963 10.6 42.2°
